Regional Weather Roundup
Issued by NWS

Home | Current Version | Previous Version | Text Only | Print | Product List | Glossary On
Versions: 1 2 3 4 5 6 7 8 9 10 11 12 13 14 15 16 17 18 19 20 21 22 23 24 25 26 27 28 29 30 31 32 33 34 35 36 37 38 39 40 41 42 43 44 45 46 47 48 49 50
000
ASUS44 KLUB 301210
RWRTX
WEST TEXAS WEATHER ROUNDUP
NATIONAL WEATHER SERVICE LUBBOCK TX
700 AM CDT THU OCT 30 2014

NOTE: "FAIR" INDICATES FEW OR NO CLOUDS BELOW 12,000 FEET WITH NO
SIGNIFICANT WEATHER AND/OR OBSTRUCTIONS TO VISIBILITY.

TXZ004-006>008-010-012-014-016-OKZ002-301300-
TEXAS PANHANDLE/OKLAHOMA PANHANDLE

CITY           SKY/WX    TMP DP  RH WIND       PRES   REMARKS
AMARILLO       CLEAR     45  43  93 NW5       30.14R
BORGER         CLEAR     50  43  77 N3        30.15R
CANADIAN       CLEAR     43  40  89 CALM      30.13R
DALHART        CLEAR     49  32  52 N14       30.18R
DUMAS            N/A     39  37  90 N9        30.15R WCI  33
GUYMON         CLEAR     45  34  65 N9        30.17R
HEREFORD       CLEAR     42  41  97 SW7       30.13R
PAMPA          CLEAR     46  41  83 N8        30.16R
PERRYTON       CLEAR     45  38  77 NW5       30.14S
$$

TXZ026-029-035-045-048-301300-
SOUTHERN PANHANDLE/SOUTH PLAINS/ROLLING PLAINS

CITY           SKY/WX    TMP DP  RH WIND       PRES   REMARKS
CHILDRESS      CLEAR     51  42  71 S7        30.10S
SEMINOLE       CLEAR     48  47  96 CALM      30.14R FOG
LUBBOCK        CLEAR     49  45  86 W6        30.11R
PLAINVIEW      CLEAR     43  40  92 CALM      30.10S
SNYDER         CLEAR     53  51  94 S3        30.11S
$$

TXZ052-054-060>062-072-078-127-140-154-169-301300-
PERMIAN BASIN/CONCHO VALLEY/BIG COUNTRY/EDWARDS PLATEAU

CITY           SKY/WX    TMP DP  RH WIND       PRES   REMARKS
ABILENE        CLEAR     58  50  75 S8        30.11S
BIG SPRING     CLEAR     59  56  91 S7        30.13R
BRADY          CLEAR     55  55 100 SE6       30.11S
BROWNWOOD      CLOUDY    54  50  87 CALM      30.13S
JUNCTION       CLEAR     59  56  89 CALM      30.12S
MIDLAND        CLEAR     55  52  89 S5        30.11R
ODESSA         CLEAR     56  52  86 S5        30.12R
SAN ANGELO     CLEAR     56  53  90 CALM      30.11R
SONORA         CLEAR     61  59  94 CALM      30.17R
SWEETWATER     CLEAR     59  55  88 S9        30.13S
WINK           CLEAR     50  45  83 N5        30.11R
$$

TXZ055-058-074-075-080-082-301300-
FAR WEST/SOUTHWEST MOUNTAINS/TRANS PECOS

CITY           SKY/WX    TMP DP  RH WIND       PRES   REMARKS
ALPINE         CLEAR     50  48  93 SW5       30.26R
DRYDEN           N/A     62  61  96 N7        30.10R
EL PASO        CLEAR     53  42  66 N8        30.17R
FORT STOCKTON  CLEAR     57  54  89 SW6       30.13R
GUADALUPE PASS CLEAR     52  43  71 SW9       30.25R
MARFA          CLEAR     45  43  93 NW3       30.24R
PECOS          CLEAR     50  47  90 W3        30.12R
PRESIDIO       FAIR      65  54  67 MISG      30.13R
$$

TXZ014-016-019-021>030-083-301300
TEXAS TECH WEST TEXAS MESONET/TEXAS PANHANDLE/NORTHERN SOUTH PLAINS

CITY           SKY/WX    TMP DP  RH WIND       PRES   REMARKS
ABERNATHY 5ENE   N/A     47  45  93 W5        30.12R
AMARILLO 9NNE    N/A     43  42  96 CALM      30.14R
AMARILLO 7SSE    N/A     40  39  97 W6        30.14R
AMHERST 1NE      N/A     43  42  97 W5        30.13R
BOOTLEG 11WNW    N/A     47  35  63 NW12      30.18R
CANADIAN 6E      N/A     48  40  72 NW7       30.12R
CAPROCK CYN SP   N/A     51  46  84 N1        30.10S
CHILDRESS 2NNE   N/A     52  42  69 S7        30.09S
CLARENDON 2WSW   N/A     44  38  78 NW1       30.11R
CLAUDE 12SW      N/A     51  45  79 SW2       30.12R
DIMMITT 2NE      N/A     45  43  92 W9        30.12S
FLOYDADA 2NNE    N/A     50  47  87 SW7       30.10S
FRIONA 2NE       N/A     39  38  94 W8        30.15R WCI  33
GOODLETT 3W      N/A     52  42  68 S2        30.08S
HART 3N          N/A     42  40  95 W7        30.12R
HEREFORD 2NW     N/A     43  39  87 W9        30.12S
MCLEAN 1E        N/A     49  40  70 NW5       30.11R
MEMPHIS 1NE      N/A     44  40  83 NW2       30.10R
MULESHOE 2SSW    N/A     34  33  96 W5        30.13R WCI  30
OLTON 6S         N/A     43  41  92 W7        30.12S
PALO DURO SP     N/A     47  43  88 NW6       30.14R
PAMPA 2E         N/A     47  41  79 W2        30.13R
PLAINVIEW 1S     N/A     45  43  91 W1        30.11R
SILVERTON 7ESE   N/A     47  43  84 SW10      30.10S
TULIA 2ENE       N/A     46  44  92 SW8       30.11S
TURKEY 2WSW      N/A     54  44  67 E1        30.09S
UMBARGER 3NNE    N/A     41  39  92 W6        30.13R
$$

TXZ033>036-039>041-045>048-301300
TEXAS TECH WEST TEXAS MESONET/SOUTH PLAINS

CITY           SKY/WX    TMP DP  RH WIND       PRES   REMARKS
AIKEN 3WSW       N/A     42  41  95 W5        30.13R
ANDREWS 2NE      N/A     50  47  91 NE1       30.13R
ANTON 6SSW       N/A     43  42  94 W3        30.11F
BROWNFIELD 2S    N/A     50  48  92 SW7       30.12R
DENVR CTY 7WNW   N/A     48  46  93 SW7       30.13R
GAIL 2ESE        N/A     51  48  90 S2        30.11R
LAMESA 2SE       N/A     47  46  95 SW5       30.12S
LEVELLAND 4S     N/A     44  41  89 SW5       30.12R
LUBBOCK 3WNW     N/A     49  46  88 W2        30.12R
MORTON 1ENE      N/A     43  42  97 W7        30.12S
ODONNELL 1N      N/A     48  46  92 SW5       30.12R
PLAINS 3N        N/A     44  43  95 SW5       30.13R
RALLS 1SE        N/A     49  46  88 SW6       30.12R
REESE CENTER     N/A     46  44  91 SW6       30.11S
SEMINOLE 2NNE    N/A     49  47  92 W5        30.12S
SLATON 2NE       N/A     50  48  92 SW2       30.11S
SNYDER 3E        N/A     55  53  94 S6        30.10S
SUNDOWN 8SW      N/A     43  42  95 SW8       30.12R
TAHOKA 3NNE      N/A     50  49  94 SW6       30.11S
WOLFFORTH 6SSW   N/A     50  49  95 SW6       30.12R
$$

TXZ031-032-036>038-042>044-301300-
TEXAS TECH WEST TEXAS MESONET/ROLLING PLAINS

CITY           SKY/WX    TMP DP  RH WIND       PRES   REMARKS
ASPERMONT 3NE    N/A     47  45  90 CALM      30.09S
FLUVANNA 3WNW    N/A     51  49  90 S5        30.11R
GRAHAM 5SSW      N/A     55  51  87 SW7       30.11R
GUTHRIE 10WSW    N/A     49  43  79 CALM      30.09R
HASKELL 1NW      N/A     57  47  68 SE8       30.09S
KNOX CITY 3NW    N/A     51  44  76 CALM      30.10S
LK A HENRY 1NW   N/A     48  46  90 W2        30.10R
NORTHFIELD 1S    N/A     49  42  76 E2        30.09S
ODELL 4ENE       N/A     55  44  66 S6        30.10R
PADUCAH 10SW     N/A     49  43  79 S7        30.09R
POST 1NE         N/A     51  47  87 W1        30.11R
RRING SPRGS 3N   N/A     49  47  90 SW6       30.09R
SEYMOUR 3NW      N/A     55  45  69 SE5       30.10R
SPUR 1W          N/A     46  42  86 NW3       30.09S
WHITE RVR 6NE    N/A     54  43  67 SW2       30.10S
$$

TXZ052-054-060>062-072-078-127-140-154-169-301300-
TEXAS TECH WEST TEXAS MESONET/PERMIAN BASIN/
CONCHO VALLEY/BIG COUNTRY/EDWARDS PLATEAU

CITY           SKY/WX    TMP DP  RH WIND       PRES   REMARKS
COYANOSA 2N      N/A     52  49  89 S3        30.12R
JUNCTION 1SSW    N/A     53  52  95 CALM      30.14R
MERTZON 3NNE     N/A     53  52  95 S2        30.13R
SAN ANGELO 7NW   N/A     56  53  90 E2        30.11S
STRLNG CT 4WSW   N/A     53  52  97 NE3       30.12S
ST LAWRNCE 5SW   N/A     52  51  98 SE7       30.12S
SWEETWATR 11SW   N/A     57  54  91 SE10      30.12R
WALL 1E          N/A     54  50  87 NE2       30.12R
$$

TXZ055-058-074-075-080-082-301300-
TEXAS TECH WEST TEXAS MESONET/FAR WEST/SOUTHWEST MOUNTAINS/TRANS PECOS

CITY           SKY/WX    TMP DP  RH WIND       PRES   REMARKS
PRSMN GAP BBNP   N/A     61  58  90 W1        30.14R
GUADLPE MTN NP   N/A     63  33  32 NW8       30.24R
$$



USA.gov is the U.S. government's official web portal to all federal, state and local government web resources and services.